Location: Newark
(50.4348°N, 30.5552°E)
Time: 02:36:12
(UTC+00:00)

Envisat - Pass Details

Date: 11 December 2019
Orbit: 764 x 766 km, 98.1° (Epoch: 23 January)

Event Time Altitude Azimuth Distance (km) Brightness Sun altitude
Rises 15:19:54 0° 153° (SSE) 3,223 6.2 -12.8°
Reaches altitude 10° 15:22:12 10° 150° (SSE) 2,301 5.4 -13.2°
Maximum altitude 15:27:12 62° 71° (ENE) 864 3.0 -13.9°
Drops below altitude 10° 15:32:14 10° 351° (N) 2,317 5.4 -14.7°
Sets 15:34:34 0° 349° (NNW) 3,248 6.2 -15.0°
